[[{"header":{"parameterUnit":"m.s-1","parameterCategory":1,"la1":30.2991,"la2":30.254,"lo1":-89.0895,"lo2":-89.0444,"dy":0.0017,"dx":0.0017,"nx":28,"ny":28,"refTime":"2023-07-31T03:00:00:Z","depth":0,"parameterNumber":2,"parameterNumberName":"U-component_of_WINDS"},"data":[0,0,0,0,0,0,0,0,0,0,0,0,0,0,0,0,0,0,0,0,0,0,0,0,0,0,0,0,0,0,0,0,0,0,0,0,0,0,0,0,0,0,0,0,0,0,0,0,0,0,0,0,0,0,0,0,0,0,1.0147,1.0148,0,1.025,1.0251,1.0252,1.0274,1.0273,1.0272,1.0271,1.0377,1.038,1.0384,0,0,0,0,0,0,0,0,0,0,0,0,0,0.9967,0.9971,1.0146,1.0148,1.0149,1.025,1.0251,1.0252,1.0274,1.0273,1.0272,1.0271,1.0376,1.038,1.0384,0,0,0,0,0,0,0,0,0,0,0,0,0,1.0055,0.9972,1.0146,1.0172,1.0175,1.0249,1.0251,1.0253,1.0274,1.0273,1.0272,1.027,1.0374,1.0379,1.0385,1.0441,0,0,1.0401,1.0403,0,0,0,0,0,0,0,0,1.005,1.0062,1.0167,1.017,1.0174,1.0248,1.0227,1.0316,1.0274,1.0236,1.0271,1.027,1.0335,1.0343,1.0365,1.0446,1.045,1.0401,1.0404,1.0407,1.0408,0,0,0,0,0,0,0,1.0044,1.0058,1.0187,1.0168,1.0173,1.0178,1.0189,1.0244,1.0291,1.024,1.0241,1.0253,1.0336,1.036,1.0368,1.0452,1.0401,1.0406,1.0409,1.0411,1.0583,1.0584,0,0,0,0,0,0,1.0034,1.0052,1.0184,1.019,1.0108,1.0182,1.0195,1.0225,1.029,1.0299,1.0254,1.0254,1.0351,1.0362,1.0372,1.0441,1.0407,1.0412,1.0415,1.0582,1.0583,1.0585,0,0,0,0,0,0,1.003,1.0045,1.018,1.0122,1.0139,1.0186,1.022,1.0228,1.0251,1.0301,1.031,1.027,1.0351,1.0364,1.0423,1.0445,1.0414,1.0419,1.058,1.0582,1.0584,1.0582,0,0,0,0,0,0,1.0024,1.0044,1.0066,1.0122,1.0142,1.023,1.0222,1.0231,1.026,1.0261,1.0318,1.0326,1.0351,1.0415,1.0429,1.0452,1.0423,1.0578,1.0581,1.0584,1.058,1.0583,1.0586,0,0,0,0,0,1.0018,1.0061,1.0067,1.0082,1.0171,1.0231,1.0243,1.027,1.0262,1.0284,1.0316,1.0324,1.0441,1.0421,1.0436,1.0462,1.0577,1.058,1.0583,1.0578,1.0583,1.0586,0,0,0,0,0,0,1.0005,1.0069,1.0076,1.0138,1.0179,1.0235,1.0264,1.0274,1.0318,1.0317,1.0349,1.0362,1.0419,1.0447,1.0423,1.0519,1.0508,1.0515,1.05,1.0504,1.0507,1.0499,1.0427,0,0,0,0,0,1.001,1.0054,1.0106,1.0156,1.0176,1.0216,1.0244,1.0262,1.0305,1.0323,1.0359,1.0401,1.0448,1.0477,1.0522,1.0584,1.0597,1.0609,1.0612,1.0614,1.0619,1.0654,1.066,1.0595,1.0595,1.0595,0,0,1.0019,1.0059,1.0085,1.0155,1.0189,1.0233,1.0231,1.0278,1.0312,1.033,1.0388,1.0416,1.0466,1.0526,1.0555,1.055,1.064,1.0618,1.062,1.0624,1.0658,1.0664,1.0669,1.0597,1.0597,1.0597,0,0,1.006,1.0094,1.014,1.0174,1.0225,1.0251,1.0262,1.0316,1.0336,1.0394,1.0409,1.0449,1.0528,1.0562,1.059,1.0643,1.0652,1.0657,1.0674,1.0707,1.0712,1.0717,1.0736,1.0742,1.0662,1.0662,1.0662,0,1.0065,1.0133,1.0162,1.0208,1.0238,1.0257,1.0303,1.0335,1.0398,1.0418,1.0413,1.0512,1.0546,1.0615,1.0628,1.065,1.0663,1.0651,1.0709,1.0714,1.0719,1.0737,1.0744,1.0662,1.0662,1.0662,1.0662,0,1.0137,1.0184,1.0214,1.0275,1.0309,1.0355,1.039,1.0421,1.0435,1.0462,1.0522,1.0564,1.0618,1.0635,1.065,1.0706,1.0702,1.0702,1.0692,1.0725,1.0743,1.075,1.0663,1.0662,1.0662,1.0662,0,0,1.0173,1.0249,1.0259,1.0287,1.0345,1.0382,1.0428,1.0481,1.0507,1.055,1.059,1.0656,1.0656,1.0688,1.0707,1.0736,1.0775,1.0733,1.0734,1.0739,1.084,1.0839,1.0847,1.0781,1.0783,1.0784,1.0836,0,1.022,1.0305,1.0332,1.0402,1.0445,1.0463,1.0504,1.0544,1.057,1.0611,1.064,1.0686,1.0683,1.0702,1.0732,1.0764,1.0796,1.0761,1.0819,1.0821,1.0806,1.0856,1.0856,1.0903,1.0843,1.0844,1.0845,0,1.0287,1.0331,1.0406,1.0458,1.0477,1.0513,1.0564,1.0602,1.0648,1.0665,1.07,1.0716,1.0766,1.0753,1.0821,1.0797,1.0822,1.0841,1.0844,1.0851,1.0835,1.0865,1.0919,1.0925,1.0856,1.0855,1.0854,0,1.0306,1.0383,1.0438,1.0461,1.0524,1.0549,1.0576,1.062,1.065,1.0694,1.0714,1.0763,1.079,1.0827,1.0857,1.0844,1.0923,1.0912,1.0938,1.0938,1.0954,1.0953,1.1013,1.097,1.097,1.097,1.097,0,1.0356,1.0401,1.0447,1.0481,1.0532,1.0562,1.0612,1.064,1.0679,1.0718,1.0737,1.0773,1.081,1.0851,1.0874,1.0928,1.094,1.0955,1.0961,1.0954,1.0952,1.0971,1.0968,1.0972,1.0972,1.0971,1.0971,0,1.0385,1.0418,1.0479,1.0533,1.0548,1.0583,1.0629,1.0662,1.0689,1.0738,1.0752,1.0794,1.0843,1.0876,1.094,1.0955,1.1014,1.1018,1.0998,1.1001,1.1026,1.1023,1.1101,1.1112,1.1061,1.1062,1.1062,0,1.0416,1.0451,1.0508,1.0536,1.0563,1.0607,1.0638,1.0669,1.07,1.0754,1.0781,1.0832,1.0874,1.0952,1.0989,1.1037,1.1044,1.1067,1.1051,1.1043,1.1044,1.1042,1.1045,1.107,1.107,1.1071,1.1071,0,1.0465,1.048,1.0523,1.0572,1.0608,1.0648,1.0689,1.071,1.0748,1.0782,1.0833,1.0866,1.093,1.0981,1.1033,1.1061,1.1072,1.1076,1.1085,1.1078,1.1065,1.1072,1.1005,1.1074,1.1074,1.1074,1.1073,1.1073,1.0497,1.0528,1.0574,1.0621,1.0655,1.0692,1.0726,1.0757,1.0799,1.0855,1.087,1.0923,1.0968,1.1039,1.1067,1.1109,1.1107,1.1119,1.1123,1.1125,1.1126,1.1058,1.1119,1.1119,1.1119,1.1119,1.1119,0,1.0548,1.0577,1.0621,1.0676,1.0714,1.0721,1.0766,1.0797,1.0843,1.0884,1.0925,1.0983,1.1032,1.1072,1.1122,1.1148,1.1155,1.116,1.1159,1.1165,1.1125,1.1112,1.1154,1.1154,1.1154,1.1154,1.1154,1.1154,1.0578,1.0633,1.0652,1.0723,1.0753,1.0805,1.083,1.0864,1.0897,1.0961,1.1002,1.1027,1.1068,1.1121,1.1166,1.1177,1.1194,1.1199,1.121,1.1172,1.1168,1.1164,1.1153,1.1202,1.1202,1.1247,1.1248,1.1248]},{"header":{"parameterUnit":"m.s-1","parameterCategory":1,"la1":30.2991,"la2":30.254,"lo1":-89.0895,"lo2":-89.0444,"dy":0.0017,"dx":0.0017,"nx":28,"ny":28,"refTime":"2023-07-31T03:00:00:Z","depth":0,"parameterNumber":3,"parameterNumberName":"V-component_of_WINDS"},"data":[0,0,0,0,0,0,0,0,0,0,0,0,0,0,0,0,0,0,0,0,0,0,0,0,0,0,0,0,0,0,0,0,0,0,0,0,0,0,0,0,0,0,0,0,0,0,0,0,0,0,0,0,0,0,0,0,0,0,0.7243,0.7242,0,0.7136,0.7135,0.7134,0.7066,0.7066,0.7065,0.7065,0.6952,0.695,0.6947,0,0,0,0,0,0,0,0,0,0,0,0,0,0.7385,0.7383,0.7243,0.7242,0.724,0.7137,0.7135,0.7134,0.7066,0.7066,0.7065,0.7065,0.6953,0.695,0.6947,0,0,0,0,0,0,0,0,0,0,0,0,0,0.7305,0.7382,0.7243,0.7194,0.7189,0.7137,0.7135,0.7133,0.7066,0.7066,0.7065,0.7064,0.6954,0.695,0.6947,0.6934,0,0,0.6934,0.6933,0,0,0,0,0,0,0,0,0.731,0.73,0.7203,0.7198,0.7191,0.7114,0.7144,0.7066,0.7066,0.7113,0.7065,0.7064,0.7006,0.6998,0.6979,0.6929,0.6924,0.6934,0.6932,0.693,0.6929,0,0,0,0,0,0,0,0.7315,0.7304,0.7201,0.7202,0.7194,0.7176,0.7165,0.7129,0.7064,0.7109,0.7103,0.7092,0.7003,0.6983,0.6976,0.6922,0.6934,0.6931,0.6928,0.6927,0.6855,0.6856,0,0,0,0,0,0,0.7329,0.7309,0.7204,0.7198,0.7251,0.7174,0.7161,0.7139,0.7064,0.7052,0.7093,0.7089,0.699,0.6981,0.6972,0.6952,0.693,0.6926,0.6924,0.6855,0.6855,0.6856,0,0,0,0,0,0,0.7333,0.732,0.7208,0.7252,0.7236,0.7173,0.7149,0.7138,0.7118,0.7052,0.704,0.7084,0.6989,0.6977,0.6944,0.6947,0.6925,0.6921,0.6854,0.6855,0.6856,0.6913,0,0,0,0,0,0,0.7337,0.7322,0.7318,0.7252,0.7234,0.7184,0.7149,0.7136,0.7111,0.7106,0.7041,0.703,0.6988,0.695,0.694,0.6941,0.6918,0.6854,0.6855,0.6856,0.691,0.6915,0.692,0,0,0,0,0,0.7342,0.7337,0.7318,0.7305,0.7227,0.7184,0.7173,0.7126,0.7112,0.7106,0.7064,0.7032,0.6949,0.6948,0.6935,0.6936,0.6853,0.6854,0.6855,0.6908,0.6914,0.692,0,0,0,0,0,0,0.7403,0.7328,0.7305,0.7279,0.7239,0.7173,0.7164,0.7134,0.7096,0.7093,0.7035,0.702,0.6993,0.6961,0.6961,0.6919,0.6897,0.6896,0.6942,0.6947,0.6951,0.696,0.6915,0,0,0,0,0,0.7414,0.7386,0.7321,0.7304,0.7285,0.7228,0.7208,0.7175,0.713,0.7112,0.7067,0.7024,0.6988,0.6966,0.6929,0.6905,0.689,0.6899,0.6904,0.6908,0.6908,0.6893,0.6896,0.6859,0.6859,0.6859,0,0,0.7435,0.739,0.7376,0.7315,0.728,0.7251,0.7214,0.7185,0.7163,0.7107,0.7073,0.7039,0.6987,0.6959,0.6944,0.6931,0.6915,0.691,0.6914,0.6911,0.6894,0.6898,0.6901,0.686,0.686,0.686,0,0,0.7459,0.7423,0.7405,0.737,0.7318,0.728,0.7276,0.7214,0.719,0.7155,0.7112,0.7084,0.7024,0.6988,0.6962,0.6973,0.6942,0.6963,0.6987,0.6973,0.6976,0.6978,0.6982,0.6984,0.6963,0.6963,0.6963,0,0.7492,0.7448,0.7399,0.7373,0.7347,0.7296,0.7277,0.7246,0.7184,0.7166,0.7153,0.7076,0.7037,0.7,0.7003,0.6983,0.6976,0.697,0.698,0.6982,0.6983,0.6986,0.6987,0.6966,0.6965,0.6965,0.6965,0,0.7491,0.7461,0.7453,0.7395,0.7368,0.7346,0.7293,0.7271,0.7241,0.7204,0.7169,0.7121,0.7074,0.7062,0.7032,0.702,0.7014,0.6991,0.6968,0.699,0.6992,0.6993,0.697,0.6969,0.6968,0.6967,0,0,0.755,0.7466,0.7464,0.7437,0.7376,0.7351,0.7326,0.7281,0.7263,0.7222,0.7199,0.7149,0.7127,0.7098,0.7063,0.7051,0.7062,0.7029,0.7027,0.7037,0.7046,0.7064,0.7066,0.7041,0.7041,0.7041,0.7051,0,0.7565,0.7519,0.7474,0.7443,0.7415,0.7366,0.7344,0.7303,0.7268,0.7238,0.7199,0.7165,0.7139,0.7121,0.7107,0.7064,0.7063,0.7063,0.7019,0.7018,0.7034,0.7067,0.7086,0.7097,0.7051,0.7051,0.7051,0,0.7576,0.7539,0.7506,0.7447,0.7433,0.7415,0.7369,0.7341,0.7294,0.7269,0.7237,0.72,0.717,0.715,0.7107,0.7108,0.7087,0.7064,0.7063,0.7057,0.7036,0.7062,0.71,0.7102,0.7052,0.7052,0.7052,0,0.7623,0.7564,0.7537,0.7515,0.7446,0.7434,0.7404,0.7356,0.7331,0.7291,0.7275,0.7232,0.7208,0.7175,0.7127,0.7117,0.709,0.7066,0.7068,0.7069,0.7064,0.7065,0.7099,0.7051,0.7051,0.7051,0.7051,0,0.7645,0.7627,0.7557,0.754,0.7518,0.7466,0.7445,0.741,0.7368,0.7343,0.7297,0.7275,0.7213,0.7182,0.7144,0.7115,0.7104,0.7083,0.7073,0.7087,0.709,0.7073,0.7071,0.7051,0.7051,0.7051,0.7051,0,0.7693,0.7646,0.7613,0.755,0.7534,0.7521,0.7466,0.7447,0.741,0.7379,0.7368,0.7309,0.7271,0.722,0.7165,0.714,0.7115,0.7099,0.7131,0.7126,0.7131,0.7131,0.7154,0.7155,0.7107,0.7108,0.7108,0,0.771,0.7695,0.7632,0.7612,0.7584,0.7553,0.7528,0.7476,0.7452,0.7397,0.7385,0.7343,0.7307,0.7248,0.7199,0.7157,0.714,0.7151,0.7133,0.7148,0.714,0.7142,0.714,0.7156,0.7157,0.7157,0.7158,0,0.7746,0.7723,0.769,0.7648,0.7621,0.7585,0.7547,0.7534,0.7473,0.7448,0.7409,0.7381,0.7326,0.7285,0.7237,0.7204,0.7171,0.7164,0.7162,0.7176,0.7196,0.7185,0.7144,0.7164,0.7163,0.7163,0.7162,0.7162,0.7779,0.7763,0.7716,0.768,0.7647,0.7613,0.7592,0.7553,0.7519,0.7471,0.7442,0.7404,0.7356,0.7288,0.7257,0.7226,0.7213,0.721,0.721,0.721,0.7214,0.7201,0.7217,0.7216,0.7216,0.7216,0.7216,0,0.7811,0.7779,0.7747,0.7696,0.7668,0.764,0.7597,0.7575,0.7542,0.7501,0.7467,0.7422,0.7382,0.733,0.7286,0.7271,0.7255,0.7262,0.7262,0.7255,0.7229,0.7235,0.7276,0.7276,0.7276,0.7276,0.7276,0.7276,0.7825,0.7798,0.777,0.7724,0.7691,0.7655,0.7632,0.76,0.7567,0.7519,0.7486,0.7454,0.7408,0.736,0.7322,0.7308,0.7294,0.7305,0.7286,0.7262,0.7257,0.7252,0.7257,0.7303,0.7303,0.7315,0.7315,0.7316]}]]